Date,TemperatureHighF,TemperatureAvgF,TemperatureLowF,DewpointHighF,DewpointAvgF,DewpointLowF,HumidityHigh,HumidityAvg,HumidityLow,PressureMaxIn,PressureMinIn,WindSpeedMaxMPH,WindSpeedAvgMPH,GustSpeedMaxMPH,PrecipitationSumIn
2013-2-1,51.4,45.1,40.1,37.8,34.9,31.4,77,68,54,29.85,29.47,12,2,14,0.00
2013-2-2,44.1,41.6,39.7,42.2,37.7,34.6,93,86,77,29.47,29.24,17,2,20,0.43
2013-2-3,41.0,36.1,32.2,34.7,30.3,24.8,86,80,68,29.94,29.44,19,6,22,0.06
2013-2-4,39.7,35.1,29.1,33.1,28.9,23.4,89,78,68,29.94,29.88,11,1,12,0.06
2013-2-5,42.1,37.7,31.6,37.4,33.9,29.3,93,86,77,29.92,29.60,6,0,10,0.00
2013-2-6,39.9,36.9,32.7,37.3,34.8,30.2,93,92,72,29.60,29.44,10,0,10,0.28
2013-2-7,35.4,33.4,30.4,32.3,30.2,25.0,93,88,78,29.74,29.40,17,4,18,0.12
2013-2-8,38.3,30.9,24.1,29.0,24.8,20.5,87,78,64,29.84,29.73,14,2,14,0.12
2013-2-9,35.2,28.5,22.3,27.5,24.4,19.4,90,84,69,29.93,29.84,5,0,6,0.00
2013-2-10,32.2,29.8,26.6,29.3,26.8,24.1,90,88,85,29.91,29.82,4,0,5,0.02
2013-2-11,31.8,28.0,25.0,27.4,24.9,21.7,91,88,81,29.94,29.87,6,0,7,0.02
2013-2-12,36.0,31.8,25.9,32.1,28.0,22.8,91,86,78,29.91,29.81,13,1,14,0.00
2013-2-13,43.7,37.4,34.2,38.1,34.2,32.0,93,88,78,30.02,29.86,16,2,17,0.06
2013-2-14,39.2,36.6,33.6,36.8,34.1,30.9,94,91,85,30.12,30.02,14,1,16,0.06
2013-2-15,44.8,38.7,35.8,40.2,36.1,34.0,95,90,81,30.10,30.03,16,2,17,0.06
2013-2-16,43.7,37.1,29.1,35.1,32.5,26.3,91,83,68,30.17,30.09,14,5,18,0.00
2013-2-17,37.8,34.5,28.2,32.3,31.0,25.7,92,87,80,30.20,30.15,3,0,4,0.00
2013-2-18,39.9,34.9,29.3,33.0,30.5,26.5,90,84,75,30.17,30.09,8,1,9,0.00
2013-2-19,41.2,35.4,30.7,32.2,29.3,26.5,90,79,60,30.09,29.84,8,1,8,0.06
2013-2-20,39.7,34.4,27.1,32.6,28.9,22.9,90,80,66,30.06,29.84,14,2,16,0.08
2013-2-21,38.8,31.8,23.7,26.5,22.9,18.8,88,71,47,30.07,29.94,12,1,13,0.00
2013-2-22,33.4,31.6,28.9,31.5,28.1,23.0,93,87,71,29.94,29.74,10,1,12,0.00
2013-2-23,39.4,36.4,33.1,37.8,34.7,31.3,94,93,92,29.82,29.68,10,0,16,0.32
2013-2-24,44.8,42.5,38.8,42.7,40.6,37.3,95,93,87,29.91,29.77,6,0,13,0.32
2013-2-25,49.1,46.1,43.9,44.3,42.4,40.6,94,87,81,30.13,29.91,12,0,14,0.02
2013-2-26,55.9,49.0,43.9,46.0,43.2,40.1,88,81,68,30.14,30.08,4,0,13,0.02
2013-2-27,48.9,44.3,40.3,42.8,39.6,36.4,89,84,73,30.30,30.13,11,3,14,0.02
2013-2-28,52.3,42.7,35.2,40.7,36.2,31.2,91,79,55,30.32,30.17,5,0,7,0.02